QPF
0.02 0.01 0.01 0.00 0.00 0.00 0.00 0.00 0.00 0.00 0.00 0.00 0.01 0.01 0.02 0.02 0.02 0.02 0.03 0.04 0.06 0.08 0.11 0.11 0.09 0.13 0.14 0.13 0.13 0.12 0.11 0.12 0.14 0.15 0.16 0.17 0.15 0.12 0.13 0.13 0.13 0.09 0.09
0.03 0.01 0.01 0.00 0.00 0.00 0.00 0.00 0.00 0.00 0.00 0.00 0.00 0.01 0.02 0.02 0.03 0.02 0.03 0.04 0.07 0.09 0.11 0.09 0.08 0.12 0.15 0.14 0.12 0.11 0.10 0.10 0.12 0.14 0.18 0.18 0.16 0.17 0.21 0.21 0.13 0.10 0.10
0.03 0.01 0.00 0.00 0.00 0.00 0.00 0.00 0.00 0.00 0.00 0.00 0.00 0.01 0.02 0.03 0.03 0.04 0.03 0.05 0.06 0.08 0.10 0.10 0.11 0.15 0.14 0.13 0.12 0.12 0.11 0.10 0.11 0.13 0.15 0.18 0.22 0.23 0.22 0.18 0.14 0.12 0.11
0.03 0.01 0.00 0.00 0.00 0.00 0.00 0.00 0.00 0.01 0.01 0.00 0.00 0.01 0.01 0.02 0.03 0.03 0.04 0.06 0.06 0.06 0.06 0.08 0.09 0.11 0.09 0.08 0.09 0.10 0.10 0.09 0.09 0.10 0.08 0.10 0.12 0.16 0.15 0.12 0.09 0.09 0.10
0.04 0.02 0.00 0.00 0.00 0.00 0.00 0.00 0.00 0.01 0.01 0.01 0.00 0.00 0.01 0.01 0.02 0.03 0.04 0.05 0.05 0.06 0.06 0.05 0.05 0.06 0.07 0.06 0.06 0.06 0.06 0.08 0.09 0.08 0.08 0.12 0.07 0.11 0.11 0.10 0.08 0.07 0.07
0.03 0.02 0.02 0.00 0.00 0.00 0.00 0.00 0.00 0.01 0.01 0.01 0.01 0.00 0.01 0.01 0.01 0.02 0.03 0.04 0.04 0.04 0.04 0.06 0.05 0.05 0.06 0.05 0.05 0.05 0.05 0.07 0.09 0.11 0.07 0.08 0.06 0.08 0.10 0.09 0.07 0.06 0.05
0.02 0.03 0.03 0.01 0.00 0.01 0.01 0.00 0.00 0.00 0.01 0.01 0.01 0.01 0.01 0.01 0.01 0.02 0.02 0.03 0.03 0.03 0.03 0.04 0.02 0.03 0.03 0.03 0.05 0.07 0.08 0.10 0.11 0.08 0.05 0.04 0.05 0.07 0.09 0.08 0.05 0.04 0.04
0.01 0.02 0.01 0.00 0.00 0.00 0.01 0.00 0.01 0.01 0.01 0.01 0.02 0.02 0.02 0.02 0.02 0.02 0.02 0.03 0.03 0.04 0.04 0.03 0.03 0.04 0.04 0.04 0.06 0.07 0.08 0.09 0.07 0.05 0.04 0.03 0.05 0.08 0.07 0.05 0.05 0.03 0.04
0.01 0.01 0.00 0.00 0.00 0.00 0.01 0.00 0.00 0.01 0.01 0.01 0.02 0.02 0.02 0.02 0.02 0.02 0.02 0.03 0.04 0.04 0.03 0.02 0.02 0.03 0.04 0.04 0.05 0.07 0.09 0.10 0.06 0.04 0.04 0.04 0.05 0.07 0.07 0.06 0.07 0.04 0.03
0.01 0.01 0.00 0.00 0.00 0.01 0.01 0.00 0.00 0.00 0.01 0.01 0.01 0.02 0.02 0.02 0.02 0.02 0.02 0.03 0.04 0.04 0.03 0.03 0.04 0.04 0.03 0.04 0.05 0.10 0.19 0.12 0.08 0.05 0.06 0.08 0.07 0.08 0.09 0.09 0.06 0.03 0.03
0.01 0.02 0.01 0.00 0.00 0.01 0.00 0.00 0.00 0.00 0.01 0.01 0.01 0.02 0.02 0.02 0.03 0.02 0.01 0.03 0.03 0.04 0.05 0.04 0.05 0.05 0.05 0.06 0.05 0.06 0.14 0.13 0.07 0.07 0.07 0.09 0.09 0.09 0.09 0.07 0.05 0.04 0.04
0.02 0.02 0.01 0.01 0.01 0.00 0.00 0.00 0.00 0.00 0.01 0.01 0.01 0.01 0.02 0.02 0.02 0.03 0.02 0.04 0.04 0.04 0.05 0.05 0.04 0.04 0.05 0.03 0.05 0.06 0.06 0.07 0.07 0.04 0.06 0.09 0.10 0.10 0.09 0.07 0.05 0.04 0.04
0.02 0.01 0.01 0.01 0.01 0.02 0.01 0.01 0.01 0.01 0.01 0.01 0.01 0.02 0.02 0.02 0.02 0.02 0.03 0.05 0.06 0.06 0.05 0.05 0.04 0.04 0.03 0.02 0.03 0.05 0.05 0.05 0.05 0.04 0.04 0.06 0.06 0.08 0.09 0.09 0.05 0.05 0.04
0.02 0.01 0.01 0.02 0.02 0.03 0.03 0.03 0.02 0.02 0.02 0.03 0.02 0.03 0.03 0.03 0.02 0.03 0.08 0.12 0.11 0.08 0.06 0.06 0.04 0.03 0.03 0.03 0.04 0.06 0.04 0.03 0.03 0.04 0.03 0.03 0.02 0.03 0.05 0.07 0.05 0.05 0.05
0.02 0.01 0.01 0.01 0.02 0.02 0.03 0.05 0.03 0.03 0.05 0.06 0.06 0.06 0.05 0.04 0.05 0.07 0.14 0.16 0.13 0.09 0.07 0.07 0.05 0.03 0.03 0.05 0.06 0.07 0.05 0.03 0.03 0.03 0.03 0.02 0.02 0.02 0.04 0.04 0.05 0.07 0.05
0.02 0.02 0.01 0.02 0.03 0.02 0.02 0.02 0.03 0.05 0.08 0.09 0.09 0.11 0.11 0.09 0.07 0.07 0.08 0.09 0.10 0.08 0.06 0.06 0.05 0.03 0.03 0.04 0.05 0.07 0.08 0.09 0.05 0.04 0.03 0.02 0.02 0.03 0.04 0.05 0.06 0.05 0.06
0.03 0.03 0.02 0.02 0.04 0.04 0.03 0.03 0.03 0.05 0.07 0.08 0.09 0.09 0.12 0.14 0.12 0.08 0.07 0.07 0.08 0.07 0.06 0.06 0.05 0.05 0.04 0.04 0.04 0.05 0.07 0.10 0.06 0.05 0.04 0.02 0.01 0.01 0.03 0.04 0.04 0.05 0.06
0.05 0.04 0.04 0.04 0.05 0.05 0.04 0.03 0.05 0.05 0.06 0.09 0.11 0.09 0.08 0.08 0.09 0.08 0.07 0.08 0.09 0.08 0.07 0.08 0.06 0.04 0.05 0.04 0.05 0.04 0.04 0.06 0.07 0.04 0.04 0.03 0.01 0.01 0.01 0.03 0.03 0.04 0.06
0.09 0.07 0.06 0.05 0.06 0.06 0.04 0.03 0.03 0.04 0.05 0.09 0.12 0.11 0.11 0.10 0.08 0.06 0.06 0.06 0.07 0.08 0.10 0.11 0.08 0.05 0.04 0.04 0.05 0.05 0.04 0.04 0.07 0.05 0.04 0.04 0.03 0.02 0.01 0.02 0.02 0.03 0.05
0.06 0.07 0.09 0.09 0.07 0.06 0.05 0.04 0.03 0.03 0.03 0.03 0.04 0.05 0.05 0.06 0.08 0.07 0.06 0.06 0.07 0.08 0.10 0.10 0.10 0.07 0.05 0.05 0.06 0.06 0.05 0.05 0.05 0.03 0.03 0.03 0.04 0.05 0.02 0.01 0.01 0.02 0.04
0.09 0.05 0.04 0.04 0.05 0.04 0.03 0.03 0.02 0.02 0.05 0.09 0.08 0.06 0.04 0.04 0.04 0.05 0.07 0.06 0.07 0.07 0.07 0.08 0.08 0.08 0.07 0.06 0.06 0.06 0.06 0.05 0.04 0.03 0.03 0.03 0.03 0.04 0.03 0.02 0.02 0.02 0.02
0.04 0.03 0.02 0.01 0.02 0.03 0.03 0.03 0.02 0.02 0.03 0.05 0.06 0.04 0.03 0.03 0.03 0.04 0.06 0.06 0.06 0.06 0.06 0.09 0.08 0.07 0.06 0.05 0.04 0.04 0.05 0.05 0.03 0.03 0.03 0.02 0.02 0.02 0.02 0.03 0.04 0.05 0.05
0.02 0.01 0.01 0.01 0.01 0.02 0.03 0.03 0.02 0.03 0.03 0.03 0.05 0.05 0.03 0.03 0.03 0.04 0.06 0.06 0.06 0.06 0.05 0.07 0.08 0.07 0.06 0.07 0.04 0.04 0.04 0.03 0.03 0.03 0.03 0.02 0.02 0.02 0.03 0.03 0.03 0.04 0.06
0.03 0.02 0.01 0.01 0.01 0.01 0.02 0.02 0.03 0.03 0.03 0.04 0.05 0.06 0.05 0.05 0.04 0.04 0.05 0.05 0.04 0.04 0.05 0.05 0.06 0.07 0.06 0.08 0.08 0.06 0.04 0.03 0.03 0.03 0.02 0.01 0.01 0.01 0.02 0.03 0.04 0.04 0.03
0.05 0.03 0.02 0.02 0.01 0.02 0.02 0.01 0.02 0.02 0.03 0.04 0.05 0.06 0.07 0.06 0.05 0.05 0.05 0.04 0.03 0.03 0.05 0.05 0.03 0.03 0.03 0.03 0.03 0.04 0.03 0.03 0.03 0.03 0.03 0.03 0.03 0.02 0.01 0.02 0.01 0.02 0.03
0.05 0.03 0.03 0.03 0.02 0.02 0.02 0.01 0.01 0.02 0.03 0.04 0.05 0.07 0.08 0.06 0.06 0.06 0.04 0.02 0.03 0.04 0.06 0.06 0.04 0.04 0.03 0.02 0.03 0.03 0.03 0.03 0.02 0.01 0.01 0.01 0.02 0.01 0.01 0.02 0.02 0.02 0.02
MSLP
1008.35 1007.59 1007.06 1006.80 1006.77 1006.90 1007.08 1007.21 1007.22 1007.09 1006.86 1006.57 1006.30 1006.10 1006.01 1006.01 1006.06 1006.11 1006.13 1006.11 1006.08 1006.08 1006.21 1006.50 1007.00 1007.70 1008.54 1009.43 1010.28 1011.02 1011.59 1011.97 1012.21 1012.36 1012.50 1012.68 1012.93 1013.27 1013.67 1014.08 1014.46 1014.78 1015.01
1008.03 1007.37 1006.92 1006.72 1006.71 1006.83 1006.98 1007.06 1007.02 1006.86 1006.60 1006.33 1006.10 1005.95 1005.91 1005.95 1006.01 1006.06 1006.04 1005.98 1005.89 1005.85 1005.94 1006.22 1006.72 1007.44 1008.33 1009.28 1010.21 1011.02 1011.67 1012.15 1012.47 1012.69 1012.88 1013.09 1013.35 1013.68 1014.05 1014.43 1014.78 1015.06 1015.26
1007.56 1007.03 1006.70 1006.58 1006.63 1006.76 1006.90 1006.95 1006.88 1006.71 1006.46 1006.21 1006.01 1005.91 1005.90 1005.95 1006.01 1006.04 1005.99 1005.88 1005.75 1005.68 1005.75 1006.03 1006.54 1007.28 1008.19 1009.19 1010.17 1011.06 1011.79 1012.36 1012.77 1013.07 1013.31 1013.56 1013.83 1014.14 1014.46 1014.79 1015.09 1015.33 1015.51
1006.99 1006.61 1006.41 1006.40 1006.52 1006.69 1006.83 1006.88 1006.81 1006.64 1006.41 1006.18 1006.02 1005.95 1005.95 1006.01 1006.06 1006.05 1005.98 1005.85 1005.71 1005.64 1005.71 1006.00 1006.53 1007.28 1008.21 1009.23 1010.24 1011.17 1011.97 1012.61 1013.10 1013.48 1013.78 1014.06 1014.33 1014.60 1014.88 1015.15 1015.39 1015.59 1015.75
1006.38 1006.17 1006.12 1006.22 1006.41 1006.63 1006.79 1006.84 1006.78 1006.61 1006.40 1006.21 1006.07 1006.01 1006.02 1006.07 1006.11 1006.09 1006.01 1005.89 1005.78 1005.74 1005.86 1006.19 1006.74 1007.50 1008.43 1009.44 1010.45 1011.39 1012.21 1012.89 1013.45 1013.88 1014.23 1014.53 1014.80 1015.05 1015.28 1015.49 1015.68 1015.85 1015.99
1005.86 1005.80 1005.88 1006.08 1006.34 1006.59 1006.75 1006.80 1006.74 1006.58 1006.39 1006.22 1006.10 1006.06 1006.07 1006.11 1006.14 1006.13 1006.07 1006.00 1005.95 1006.00 1006.20 1006.58 1007.17 1007.94 1008.85 1009.81 1010.78 1011.68 1012.49 1013.18 1013.76 1014.24 1014.63 1014.96 1015.23 1015.45 1015.64 1015.81 1015.96 1016.10 1016.24
1005.51 1005.58 1005.77 1006.04 1006.33 1006.57 1006.72 1006.75 1006.67 1006.51 1006.33 1006.17 1006.07 1006.04 1006.05 1006.09 1006.13 1006.14 1006.13 1006.14 1006.20 1006.36 1006.66 1007.14 1007.77 1008.54 1009.41 1010.31 1011.19 1012.02 1012.77 1013.43 1014.01 1014.51 1014.94 1015.29 1015.57 1015.80 1015.97 1016.11 1016.24 1016.36 1016.51
1005.43 1005.60 1005.85 1006.14 1006.41 1006.61 1006.71 1006.69 1006.57 1006.40 1006.22 1006.07 1005.99 1005.96 1005.97 1006.01 1006.06 1006.11 1006.16 1006.27 1006.45 1006.74 1007.18 1007.75 1008.44 1009.22 1010.03 1010.85 1011.62 1012.35 1013.01 1013.62 1014.18 1014.69 1015.14 1015.53 1015.85 1016.10 1016.28 1016.42 1016.54 1016.66 1016.82
1005.65 1005.87 1006.13 1006.40 1006.61 1006.74 1006.74 1006.65 1006.48 1006.28 1006.10 1005.96 1005.88 1005.85 1005.86 1005.90 1005.95 1006.03 1006.15 1006.34 1006.65 1007.08 1007.65 1008.32 1009.08 1009.86 1010.64 1011.37 1012.04 1012.65 1013.22 1013.76 1014.28 1014.79 1015.27 1015.70 1016.07 1016.37 1016.59 1016.76 1016.89 1017.02 1017.18
1006.13 1006.37 1006.62 1006.83 1006.95 1006.96 1006.86 1006.68 1006.45 1006.21 1006.02 1005.88 1005.80 1005.77 1005.78 1005.80 1005.84 1005.93 1006.09 1006.37 1006.78 1007.33 1008.01 1008.79 1009.61 1010.42 1011.17 1011.83 1012.41 1012.92 1013.40 1013.88 1014.36 1014.87 1015.38 1015.87 1016.30 1016.66 1016.94 1017.15 1017.31 1017.46 1017.61
1006.80 1007.04 1007.24 1007.37 1007.38 1007.28 1007.07 1006.80 1006.52 1006.26 1006.05 1005.92 1005.84 1005.80 1005.78 1005.77 1005.79 1005.87 1006.04 1006.36 1006.84 1007.49 1008.27 1009.14 1010.03 1010.88 1011.62 1012.25 1012.77 1013.22 1013.63 1014.05 1014.51 1015.02 1015.55 1016.08 1016.58 1017.01 1017.35 1017.61 1017.80 1017.96 1018.11
1007.53 1007.76 1007.92 1007.96 1007.88 1007.67 1007.38 1007.04 1006.72 1006.44 1006.25 1006.12 1006.04 1005.99 1005.94 1005.89 1005.86 1005.90 1006.06 1006.39 1006.91 1007.62 1008.47 1009.42 1010.38 1011.27 1012.05 1012.68 1013.19 1013.60 1013.97 1014.36 1014.80 1015.30 1015.85 1016.41 1016.95 1017.43 1017.82 1018.13 1018.36 1018.53 1018.67
1008.18 1008.41 1008.54 1008.53 1008.38 1008.10 1007.75 1007.38 1007.05 1006.78 1006.60 1006.49 1006.42 1006.35 1006.27 1006.18 1006.10 1006.09 1006.22 1006.53 1007.06 1007.80 1008.70 1009.71 1010.73 1011.68 1012.51 1013.18 1013.71 1014.13 1014.49 1014.87 1015.29 1015.77 1016.31 1016.87 1017.42 1017.92 1018.35 1018.68 1018.93 1019.11 1019.24
1008.67 1008.91 1009.03 1009.00 1008.81 1008.52 1008.16 1007.80 1007.48 1007.25 1007.11 1007.02 1006.96 1006.89 1006.79 1006.66 1006.54 1006.49 1006.58 1006.87 1007.39 1008.13 1009.06 1010.10 1011.17 1012.18 1013.07 1013.80 1014.38 1014.83 1015.22 1015.59 1015.99 1016.44 1016.94 1017.47 1017.99 1018.47 1018.89 1019.22 1019.47 1019.65 1019.77
1008.94 1009.20 1009.34 1009.32 1009.16 1008.88 1008.56 1008.24 1007.98 1007.80 1007.70 1007.66 1007.62 1007.56 1007.46 1007.32 1007.19 1007.12 1007.19 1007.45 1007.96 1008.69 1009.62 1010.67 1011.77 1012.83 1013.76 1014.56 1015.19 1015.70 1016.12 1016.50 1016.88 1017.28 1017.72 1018.17 1018.62 1019.04 1019.40 1019.70 1019.93 1020.10 1020.21
1008.99 1009.30 1009.48 1009.51 1009.40 1009.19 1008.93 1008.69 1008.50 1008.39 1008.34 1008.34 1008.34 1008.31 1008.23 1008.12 1008.00 1007.95 1008.03 1008.30 1008.79 1009.51 1010.41 1011.45 1012.54 1013.61 1014.58 1015.42 1016.11 1016.67 1017.13 1017.52 1017.88 1018.22 1018.57 1018.92 1019.26 1019.58 1019.86 1020.10 1020.29 1020.44 1020.55
1008.93 1009.28 1009.52 1009.60 1009.57 1009.45 1009.28 1009.13 1009.02 1008.98 1008.99 1009.03 1009.07 1009.08 1009.05 1008.99 1008.94 1008.94 1009.07 1009.36 1009.86 1010.55 1011.41 1012.40 1013.45 1014.48 1015.45 1016.30 1017.03 1017.64 1018.13 1018.53 1018.87 1019.17 1019.43 1019.67 1019.89 1020.09 1020.26 1020.42 1020.56 1020.68 1020.78
1008.85 1009.24 1009.52 1009.68 1009.73 1009.70 1009.64 1009.58 1009.55 1009.56 1009.62 1009.69 1009.77 1009.83 1009.86 1009.89 1009.93 1010.03 1010.23 1010.57 1011.08 1011.74 1012.55 1013.45 1014.41 1015.37 1016.28 1017.12 1017.86 1018.49 1019.02 1019.44 1019.78 1020.04 1020.23 1020.37 1020.48 1020.55 1020.62 1020.69 1020.76 1020.85 1020.94
1008.85 1009.26 1009.58 1009.80 1009.93 1009.99 1010.02 1010.04 1010.08 1010.14 1010.23 1010.33 1010.44 1010.55 1010.65 1010.77 1010.92 1011.13 1011.43 1011.84 1012.36 1012.99 1013.71 1014.51 1015.34 1016.18 1017.01 1017.79 1018.51 1019.15 1019.71 1020.17 1020.52 1020.77 1020.93 1021.00 1021.02 1021.00 1020.97 1020.95 1020.97 1021.02 1021.10
1008.97 1009.39 1009.73 1010.00 1010.19 1010.33 1010.44 1010.54 1010.63 1010.73 1010.84 1010.96 1011.08 1011.23 1011.40 1011.61 1011.88 1012.20 1012.60 1013.07 1013.60 1014.19 1014.82 1015.48 1016.16 1016.86 1017.56 1018.26 1018.94 1019.58 1020.16 1020.66 1021.06 1021.34 1021.50 1021.56 1021.53 1021.44 1021.35 1021.27 1021.22 1021.24 1021.30
1009.20 1009.61 1009.96 1010.25 1010.50 1010.71 1010.89 1011.04 1011.18 1011.31 1011.44 1011.56 1011.71 1011.88 1012.11 1012.40 1012.76 1013.18 1013.66 1014.18 1014.72 1015.26 1015.79 1016.31 1016.83 1017.37 1017.93 1018.52 1019.14 1019.77 1020.38 1020.94 1021.41 1021.75 1021.95 1022.03 1022.00 1021.90 1021.77 1021.65 1021.57 1021.55 1021.59
1009.45 1009.85 1010.20 1010.51 1010.79 1011.05 1011.29 1011.51 1011.70 1011.87 1012.01 1012.14 1012.30 1012.50 1012.76 1013.11 1013.54 1014.04 1014.59 1015.14 1015.67 1016.16 1016.59 1016.98 1017.34 1017.71 1018.13 1018.62 1019.17 1019.78 1020.42 1021.03 1021.57 1021.99 1022.28 1022.42 1022.44 1022.36 1022.23 1022.10 1022.00 1021.95 1021.97
1009.63 1010.02 1010.37 1010.68 1010.99 1011.30 1011.60 1011.88 1012.13 1012.34 1012.51 1012.67 1012.84 1013.06 1013.35 1013.74 1014.21 1014.75 1015.33 1015.90 1016.42 1016.85 1017.20 1017.47 1017.70 1017.93 1018.22 1018.60 1019.09 1019.67 1020.31 1020.97 1021.59 1022.10 1022.48 1022.71 1022.80 1022.77 1022.68 1022.56 1022.46 1022.40 1022.40
1009.65 1010.04 1010.37 1010.70 1011.03 1011.38 1011.73 1012.08 1012.40 1012.68 1012.90 1013.11 1013.31 1013.55 1013.86 1014.26 1014.75 1015.31 1015.90 1016.46 1016.96 1017.35 1017.63 1017.81 1017.94 1018.06 1018.25 1018.54 1018.96 1019.50 1020.14 1020.82 1021.49 1022.08 1022.54 1022.86 1023.04 1023.09 1023.06 1022.98 1022.89 1022.83 1022.80
1009.49 1009.87 1010.20 1010.53 1010.87 1011.26 1011.67 1012.09 1012.48 1012.84 1013.15 1013.41 1013.66 1013.93 1014.26 1014.67 1015.16 1015.71 1016.29 1016.84 1017.31 1017.67 1017.91 1018.04 1018.10 1018.15 1018.26 1018.48 1018.84 1019.33 1019.94 1020.62 1021.30 1021.93 1022.47 1022.87 1023.12 1023.26 1023.29 1023.26 1023.21 1023.16 1023.13
1009.18 1009.57 1009.89 1010.20 1010.56 1010.96 1011.42 1011.91 1012.39 1012.83 1013.23 1013.57 1013.88 1014.19 1014.54 1014.95 1015.43 1015.97 1016.52 1017.04 1017.50 1017.84 1018.06 1018.17 1018.20 1018.22 1018.29 1018.45 1018.74 1019.18 1019.73 1020.37 1021.04 1021.68 1022.25 1022.70 1023.03 1023.24 1023.35 1023.38 1023.37 1023.34 1023.32
Thickness
5793 5795 5795 5794 5793 5791 5790 5789 5787 5786 5785 5784 5783 5781 5780 5779 5778 5777 5776 5775 5773 5771 5769 5767 5766 5764 5763 5763 5762 5761 5760 5759 5759 5759 5757 5756 5755 5754 5752 5751 5749 5748 5747
5798 5796 5795 5794 5792 5790 5789 5787 5786 5784 5783 5782 5780 5779 5778 5776 5775 5774 5773 5772 5770 5768 5766 5764 5763 5762 5761 5760 5759 5758 5757 5757 5757 5756 5755 5754 5753 5751 5750 5749 5747 5746 5746
5799 5797 5795 5793 5791 5789 5787 5786 5784 5783 5782 5780 5779 5777 5775 5774 5772 5771 5770 5769 5767 5766 5764 5763 5762 5760 5759 5758 5757 5756 5754 5753 5753 5753 5752 5750 5750 5750 5749 5747 5746 5745 5744
5800 5797 5795 5792 5790 5788 5786 5784 5783 5781 5780 5779 5777 5775 5773 5772 5770 5768 5767 5765 5764 5763 5762 5761 5759 5758 5757 5756 5755 5754 5752 5751 5750 5750 5749 5749 5749 5748 5747 5745 5744 5743 5742
5799 5797 5794 5792 5790 5787 5785 5783 5782 5780 5779 5777 5775 5773 5771 5770 5768 5766 5764 5763 5762 5761 5759 5758 5757 5756 5755 5754 5752 5751 5751 5749 5749 5748 5747 5747 5747 5746 5745 5743 5742 5741 5741
5798 5796 5794 5792 5789 5786 5784 5782 5780 5778 5776 5775 5773 5771 5769 5768 5766 5764 5762 5761 5760 5759 5757 5756 5755 5754 5754 5752 5751 5749 5749 5747 5746 5746 5745 5745 5744 5744 5742 5741 5741 5740 5739
5797 5795 5793 5791 5788 5785 5783 5780 5778 5776 5775 5773 5771 5769 5767 5765 5764 5762 5761 5759 5758 5757 5756 5755 5754 5753 5752 5751 5749 5748 5747 5746 5745 5744 5743 5743 5742 5742 5741 5740 5739 5739 5738
5798 5795 5792 5789 5786 5784 5781 5779 5777 5775 5773 5770 5768 5767 5765 5763 5762 5760 5759 5757 5756 5755 5754 5753 5752 5751 5750 5749 5748 5747 5745 5744 5743 5742 5741 5741 5741 5740 5740 5739 5738 5737 5737
5797 5793 5790 5787 5785 5783 5780 5778 5775 5773 5771 5768 5766 5764 5763 5761 5759 5758 5757 5755 5754 5753 5752 5752 5751 5749 5749 5748 5746 5745 5744 5743 5742 5741 5741 5740 5740 5739 5739 5738 5737 5736 5735
5794 5791 5789 5786 5784 5781 5779 5776 5773 5771 5769 5767 5764 5762 5760 5758 5757 5756 5755 5754 5752 5751 5751 5750 5749 5748 5747 5746 5745 5744 5743 5742 5740 5740 5740 5739 5739 5738 5737 5736 5735 5734 5734
5789 5788 5787 5785 5782 5779 5777 5774 5771 5769 5767 5764 5762 5760 5758 5756 5755 5754 5753 5751 5750 5749 5748 5748 5747 5746 5745 5744 5743 5742 5741 5740 5738 5738 5738 5738 5737 5736 5735 5734 5733 5733 5732
5784 5784 5785 5783 5781 5778 5775 5772 5769 5767 5764 5762 5760 5758 5756 5754 5753 5752 5751 5749 5748 5747 5746 5745 5745 5744 5743 5742 5741 5740 5739 5738 5737 5736 5736 5736 5735 5734 5733 5732 5731 5731 5730
5786 5784 5783 5782 5780 5776 5773 5770 5767 5765 5762 5760 5758 5756 5754 5752 5751 5750 5748 5747 5746 5745 5744 5743 5742 5741 5741 5740 5739 5738 5737 5736 5735 5735 5734 5733 5733 5732 5731 5730 5729 5729 5728
5785 5784 5782 5781 5778 5775 5772 5769 5766 5763 5760 5758 5756 5754 5751 5749 5748 5747 5746 5745 5743 5743 5742 5741 5740 5739 5739 5738 5737 5736 5735 5735 5733 5733 5732 5731 5730 5730 5730 5728 5728 5727 5726
5784 5783 5783 5781 5777 5774 5770 5767 5764 5761 5758 5756 5754 5752 5750 5747 5746 5745 5743 5742 5741 5740 5740 5739 5738 5737 5736 5736 5735 5734 5734 5733 5732 5731 5730 5729 5729 5728 5728 5727 5726 5725 5725
5783 5781 5781 5779 5776 5773 5769 5765 5763 5760 5756 5754 5751 5749 5747 5745 5743 5742 5741 5740 5739 5738 5738 5737 5736 5735 5734 5734 5733 5733 5732 5731 5730 5729 5729 5728 5727 5726 5726 5725 5724 5724 5723
5782 5781 5778 5776 5773 5770 5767 5763 5760 5757 5754 5751 5749 5747 5745 5744 5742 5740 5738 5737 5737 5736 5735 5734 5733 5732 5731 5731 5730 5731 5730 5729 5728 5728 5727 5726 5725 5724 5724 5723 5722 5722 5722
5781 5778 5776 5775 5770 5767 5764 5761 5758 5755 5752 5750 5747 5745 5744 5742 5740 5738 5736 5735 5734 5734 5732 5731 5730 5728 5727 5727 5727 5727 5727 5727 5726 5726 5725 5724 5723 5722 5721 5721 5720 5720 5720
5779 5776 5773 5770 5767 5764 5760 5758 5755 5753 5750 5747 5745 5743 5741 5740 5738 5736 5734 5733 5732 5731 5729 5729 5726 5725 5723 5723 5723 5724 5723 5723 5724 5723 5722 5721 5721 5720 5719 5719 5719 5718 5718
5778 5775 5771 5767 5764 5760 5757 5753 5751 5748 5746 5744 5741 5740 5738 5737 5735 5733 5731 5730 5729 5727 5725 5724 5722 5721 5720 5720 5721 5719 5719 5720 5720 5720 5720 5719 5718 5717 5717 5717 5717 5716 5715
5772 5769 5765 5762 5760 5757 5752 5748 5744 5742 5741 5739 5738 5737 5735 5734 5732 5731 5729 5727 5725 5723 5722 5721 5719 5716 5715 5716 5713 5710 5712 5715 5716 5717 5717 5716 5715 5715 5714 5714 5714 5713 5712
5765 5763 5760 5758 5757 5754 5751 5748 5745 5741 5738 5736 5734 5733 5732 5731 5729 5728 5725 5723 5722 5720 5718 5717 5715 5712 5711 5712 5708 5702 5699 5702 5708 5713 5713 5712 5712 5711 5711 5711 5710 5709 5708
5759 5758 5758 5754 5753 5751 5748 5744 5740 5736 5733 5730 5729 5728 5728 5728 5726 5724 5722 5720 5718 5716 5714 5713 5712 5709 5706 5707 5707 5702 5694 5692 5697 5704 5707 5708 5707 5707 5707 5708 5707 5706 5706
5755 5755 5754 5751 5749 5747 5744 5740 5735 5731 5727 5726 5726 5725 5724 5723 5722 5720 5718 5717 5715 5713 5711 5710 5708 5707 5705 5702 5703 5704 5702 5700 5694 5692 5698 5702 5703 5703 5704 5704 5704 5703 5703
5750 5749 5747 5745 5743 5742 5740 5737 5733 5728 5726 5724 5723 5721 5719 5719 5718 5716 5715 5713 5711 5709 5708 5707 5705 5705 5704 5701 5700 5699 5699 5697 5696 5691 5688 5692 5696 5699 5700 5701 5701 5700 5699
5742 5741 5740 5738 5738 5738 5736 5733 5730 5726 5723 5720 5718 5716 5715 5714 5713 5712 5711 5709 5707 5705 5704 5704 5703 5702 5701 5700 5699 5698 5696 5694 5692 5690 5687 5687 5688 5693 5696 5697 5697 5696 5695